Time,TemperatureF,DewpointF,PressureIn,WindDirection,WindDirectionDegrees,WindSpeedMPH,WindSpeedGustMPH,Humidity,HourlyPrecipIn,Conditions,Clouds,dailyrainin,SoftwareType,DateUTC
2013-04-27 00:00:00,60.1,39.1,28.37,ESE,111,0.0,28.6,78,0.00,,,-99.99,HOBO +U30 +Weather +,2013-04-27 07:00:00,
2013-04-27 00:15:00,59.9,38.3,28.37,ESE,111,0.0,27.3,79,0.00,,,-99.99,HOBO +U30 +Weather +,2013-04-27 07:15:00,
2013-04-27 00:30:00,59.7,37.8,28.38,ESE,111,0.0,27.1,80,0.00,,,-99.99,HOBO +U30 +Weather +,2013-04-27 07:30:00,
2013-04-27 00:45:00,59.5,37.9,28.37,ESE,111,0.0,24.2,80,0.00,,,-99.99,HOBO +U30 +Weather +,2013-04-27 07:45:00,
2013-04-27 01:00:00,59.3,38.0,28.37,ESE,111,0.0,24.8,83,0.00,,,-99.99,HOBO +U30 +Weather +,2013-04-27 08:00:00,
2013-04-27 01:15:00,59.1,37.5,28.37,ESE,111,0.0,0.9,83,0.00,,,-99.99,HOBO +U30 +Weather +,2013-04-27 08:15:00,
2013-04-27 01:30:00,58.9,37.8,28.36,ESE,111,0.0,25.3,84,0.00,,,-99.99,HOBO +U30 +Weather +,2013-04-27 08:30:00,
2013-04-27 01:45:00,58.7,37.6,28.36,ESE,111,0.0,24.8,85,0.00,,,-99.99,HOBO +U30 +Weather +,2013-04-27 08:45:00,
2013-04-27 02:00:00,58.5,37.0,28.36,ESE,111,0.0,24.2,84,0.00,,,-99.99,HOBO +U30 +Weather +,2013-04-27 09:00:00,
2013-04-27 02:15:00,58.3,36.9,28.36,ESE,111,0.0,25.3,85,0.00,,,-99.99,HOBO +U30 +Weather +,2013-04-27 09:15:00,
2013-04-27 02:30:00,58.1,36.8,28.36,ESE,111,0.4,26.2,85,0.00,,,-99.99,HOBO +U30 +Weather +,2013-04-27 09:30:00,
2013-04-27 02:45:00,57.9,37.3,28.36,ESE,111,0.4,28.2,86,0.00,,,-99.99,HOBO +U30 +Weather +,2013-04-27 09:45:00,
2013-04-27 03:00:00,57.7,37.6,28.35,ESE,111,0.0,0.9,86,0.00,,,-99.99,HOBO +U30 +Weather +,2013-04-27 10:00:00,
2013-04-27 03:15:00,57.5,37.5,28.35,ESE,111,0.9,3.4,86,0.00,,,-99.99,HOBO +U30 +Weather +,2013-04-27 10:15:00,
2013-04-27 03:30:00,57.4,37.4,28.34,ESE,111,0.0,2.0,88,0.00,,,-99.99,HOBO +U30 +Weather +,2013-04-27 10:30:00,
2013-04-27 03:45:00,57.2,37.4,28.34,ESE,111,0.0,0.0,89,0.00,,,-99.99,HOBO +U30 +Weather +,2013-04-27 10:45:00,
2013-04-27 04:00:00,57.1,37.2,28.34,ESE,111,0.0,2.0,88,0.00,,,-99.99,HOBO +U30 +Weather +,2013-04-27 11:00:00,
2013-04-27 04:15:00,56.9,37.7,28.33,ESE,111,0.4,2.0,87,0.00,,,-99.99,HOBO +U30 +Weather +,2013-04-27 11:15:00,
2013-04-27 04:30:00,56.7,37.3,28.33,ESE,111,0.4,2.5,88,0.00,,,-99.99,HOBO +U30 +Weather +,2013-04-27 11:30:00,
2013-04-27 04:45:00,56.6,37.8,28.33,ESE,111,0.4,2.9,89,0.00,,,-99.99,HOBO +U30 +Weather +,2013-04-27 11:45:00,
2013-04-27 05:00:00,56.4,37.7,28.33,ESE,111,0.4,2.5,89,0.00,,,-99.99,HOBO +U30 +Weather +,2013-04-27 12:00:00,
2013-04-27 05:15:00,56.3,38.5,28.33,ESE,111,0.9,21.9,89,0.00,,,-99.99,HOBO +U30 +Weather +,2013-04-27 12:15:00,
2013-04-27 05:30:00,56.2,37.9,28.33,SW,216,1.3,25.3,90,0.00,,,-99.99,HOBO +U30 +Weather +,2013-04-27 12:30:00,
2013-04-27 06:45:00,55.5,39.0,28.33,SW,222,0.4,2.9,88,0.00,,,-99.99,HOBO +U30 +Weather +,2013-04-27 13:45:00,
2013-04-27 07:00:00,55.4,38.9,28.33,SW,232,0.4,1.6,86,0.00,,,-99.99,HOBO +U30 +Weather +,2013-04-27 14:00:00,
2013-04-27 07:15:00,55.3,40.8,28.33,SW,232,0.4,25.7,86,0.00,,,-99.99,HOBO +U30 +Weather +,2013-04-27 14:15:00,
2013-04-27 07:30:00,55.2,39.9,28.33,SW,232,0.4,3.4,81,0.00,,,-99.99,HOBO +U30 +Weather +,2013-04-27 14:30:00,
2013-04-27 07:45:00,55.1,40.5,28.34,SW,226,0.9,3.4,78,0.00,,,-99.99,HOBO +U30 +Weather +,2013-04-27 14:45:00,
2013-04-27 08:00:00,55.0,40.6,28.34,SW,222,0.4,2.9,78,0.00,,,-99.99,HOBO +U30 +Weather +,2013-04-27 15:00:00,
2013-04-27 08:15:00,55.0,41.7,28.34,SW,218,0.9,2.9,76,0.00,,,-99.99,HOBO +U30 +Weather +,2013-04-27 15:15:00,
2013-04-27 08:30:00,54.9,42.7,28.34,SW,229,0.9,25.7,75,0.00,,,-99.99,HOBO +U30 +Weather +,2013-04-27 15:30:00,
2013-04-27 08:45:00,54.8,42.8,28.34,SW,219,0.9,3.4,71,0.00,,,-99.99,HOBO +U30 +Weather +,2013-04-27 15:45:00,
2013-04-27 09:00:00,54.8,43.8,28.35,SW,230,1.3,25.7,69,0.00,,,-99.99,HOBO +U30 +Weather +,2013-04-27 16:00:00,
2013-04-27 09:15:00,54.8,43.7,28.35,SW,230,1.3,3.4,66,0.00,,,-99.99,HOBO +U30 +Weather +,2013-04-27 16:15:00,
2013-04-27 09:30:00,54.8,40.4,28.35,WNW,296,0.9,19.5,53,0.00,,,-99.99,HOBO +U30 +Weather +,2013-04-27 16:30:00,
2013-04-27 09:45:00,54.8,39.5,28.35,WNW,299,0.9,26.2,53,0.00,,,-99.99,HOBO +U30 +Weather +,2013-04-27 16:45:00,
2013-04-27 10:00:00,54.8,42.8,28.35,SW,220,2.9,10.1,62,0.00,,,-99.99,HOBO +U30 +Weather +,2013-04-27 17:00:00,
2013-04-27 10:15:00,54.9,41.9,28.35,SW,230,1.6,14.5,57,0.00,,,-99.99,HOBO +U30 +Weather +,2013-04-27 17:15:00,
2013-04-27 10:30:00,54.9,36.4,28.35,North,354,1.3,3.8,41,0.00,,,-99.99,HOBO +U30 +Weather +,2013-04-27 17:30:00,
2013-04-27 10:45:00,55.0,33.1,28.35,SE,128,2.9,24.8,38,0.00,,,-99.99,HOBO +U30 +Weather +,2013-04-27 17:45:00,
2013-04-27 11:00:00,55.0,33.2,28.35,North,6,2.0,6.7,36,0.00,,,-99.99,HOBO +U30 +Weather +,2013-04-27 18:00:00,
2013-04-27 11:15:00,55.1,33.4,28.36,NNW,347,2.5,8.3,36,0.00,,,-99.99,HOBO +U30 +Weather +,2013-04-27 18:15:00,
2013-04-27 11:30:00,55.2,33.4,28.35,NW,319,2.9,27.3,37,0.00,,,-99.99,HOBO +U30 +Weather +,2013-04-27 18:30:00,
2013-04-27 11:45:00,55.3,32.8,28.35,North,354,2.0,24.8,37,0.00,,,-99.99,HOBO +U30 +Weather +,2013-04-27 18:45:00,
2013-04-27 12:00:00,55.3,32.7,28.35,NW,317,3.4,7.8,38,0.00,,,-99.99,HOBO +U30 +Weather +,2013-04-27 19:00:00,
2013-04-27 12:15:00,55.4,32.1,28.36,NNW,327,2.5,13.6,37,0.00,,,-99.99,HOBO +U30 +Weather +,2013-04-27 19:15:00,
2013-04-27 12:30:00,55.5,32.1,28.35,NW,316,2.5,10.1,37,0.00,,,-99.99,HOBO +U30 +Weather +,2013-04-27 19:30:00,
2013-04-27 12:45:00,55.6,31.3,28.36,WNW,282,3.4,30.6,36,0.00,,,-99.99,HOBO +U30 +Weather +,2013-04-27 19:45:00,
2013-04-27 13:00:00,55.6,32.0,28.36,NW,312,3.8,30.0,38,0.00,,,-99.99,HOBO +U30 +Weather +,2013-04-27 20:00:00,
2013-04-27 13:15:00,55.7,33.1,28.35,WNW,286,2.5,29.1,39,0.00,,,-99.99,HOBO +U30 +Weather +,2013-04-27 20:15:00,
2013-04-27 13:30:00,55.7,31.7,28.36,NW,313,2.9,6.7,37,0.00,,,-99.99,HOBO +U30 +Weather +,2013-04-27 20:30:00,
2013-04-27 13:45:00,55.7,33.5,28.36,West,272,2.5,27.7,40,0.00,,,-99.99,HOBO +U30 +Weather +,2013-04-27 20:45:00,
2013-04-27 14:00:00,55.8,34.2,28.38,NW,314,3.8,30.0,42,0.00,,,-99.99,HOBO +U30 +Weather +,2013-04-27 21:00:00,
2013-04-27 14:15:00,55.8,38.1,28.37,NW,314,3.4,30.6,53,0.00,,,-99.99,HOBO +U30 +Weather +,2013-04-27 21:15:00,
2013-04-27 14:30:00,55.9,41.3,28.38,NW,309,2.5,24.8,63,0.00,,,-99.99,HOBO +U30 +Weather +,2013-04-27 21:30:00,
2013-04-27 14:45:00,55.9,44.6,28.38,NNW,348,2.5,5.8,76,0.00,,,-99.99,HOBO +U30 +Weather +,2013-04-27 21:45:00,
2013-04-27 15:00:00,55.9,44.9,28.38,NNE,22,2.5,4.5,83,0.30,,,-99.99,HOBO +U30 +Weather +,2013-04-27 22:00:00,
2013-04-27 15:15:00,55.9,46.1,28.38,North,6,1.3,28.2,86,0.30,,,-99.99,HOBO +U30 +Weather +,2013-04-27 22:15:00,
2013-04-27 15:30:00,56.0,44.9,28.38,East,93,2.0,4.3,86,0.50,,,-99.99,HOBO +U30 +Weather +,2013-04-27 22:30:00,
2013-04-27 15:45:00,56.0,45.7,28.38,ESE,115,1.3,4.5,89,0.30,,,-99.99,HOBO +U30 +Weather +,2013-04-27 22:45:00,
2013-04-27 16:00:00,56.0,44.9,28.37,ESE,118,2.0,27.3,88,0.30,,,-99.99,HOBO +U30 +Weather +,2013-04-27 23:00:00,
2013-04-27 16:15:00,55.9,45.0,28.37,ESE,111,1.6,26.6,90,0.30,,,-99.99,HOBO +U30 +Weather +,2013-04-27 23:15:00,
2013-04-27 16:30:00,55.9,45.3,28.37,East,93,0.4,25.3,91,0.30,,,-99.99,HOBO +U30 +Weather +,2013-04-27 23:30:00,
2013-04-27 16:45:00,55.8,44.4,28.36,East,100,0.4,24.4,89,0.50,,,-99.99,HOBO +U30 +Weather +,2013-04-27 23:45:00,
2013-04-27 17:00:00,55.8,44.6,28.37,ESE,111,0.4,2.9,90,0.00,,,-99.99,HOBO +U30 +Weather +,2013-04-28 00:00:00,
2013-04-27 17:15:00,55.7,45.3,28.37,ESE,115,0.0,0.4,93,0.50,,,-99.99,HOBO +U30 +Weather +,2013-04-28 00:15:00,
2013-04-27 17:30:00,55.6,44.7,28.37,ESE,122,0.4,25.3,92,0.30,,,-99.99,HOBO +U30 +Weather +,2013-04-28 00:30:00,
2013-04-27 17:45:00,55.4,45.0,28.37,ESE,107,0.0,24.8,94,0.30,,,-99.99,HOBO +U30 +Weather +,2013-04-28 00:45:00,
2013-04-27 18:00:00,55.3,45.0,28.36,SE,143,1.3,25.7,93,0.00,,,-99.99,HOBO +U30 +Weather +,2013-04-28 01:00:00,
2013-04-27 18:15:00,55.3,45.0,28.35,ESE,104,1.6,24.8,93,0.30,,,-99.99,HOBO +U30 +Weather +,2013-04-28 01:15:00,
2013-04-27 18:30:00,55.2,45.0,28.35,ESE,108,0.0,1.3,93,0.00,,,-99.99,HOBO +U30 +Weather +,2013-04-28 01:30:00,
2013-04-27 18:45:00,55.2,44.9,28.35,ESE,119,0.4,26.6,94,0.00,,,-99.99,HOBO +U30 +Weather +,2013-04-28 01:45:00,
2013-04-27 19:00:00,55.1,45.4,28.35,ESE,108,0.0,26.2,94,0.00,,,-99.99,HOBO +U30 +Weather +,2013-04-28 02:00:00,
2013-04-27 19:15:00,55.1,44.8,28.35,SSE,166,0.0,25.7,94,0.00,,,-99.99,HOBO +U30 +Weather +,2013-04-28 02:15:00,
2013-04-27 19:30:00,55.0,44.7,28.35,SE,126,0.0,26.2,94,0.00,,,-99.99,HOBO +U30 +Weather +,2013-04-28 02:30:00,
2013-04-27 19:45:00,55.0,44.8,28.35,SE,124,0.0,26.2,95,0.00,,,-99.99,HOBO +U30 +Weather +,2013-04-28 02:45:00,
2013-04-27 20:00:00,54.9,44.9,28.35,ESE,114,0.0,24.8,95,0.30,,,-99.99,HOBO +U30 +Weather +,2013-04-28 03:00:00,
2013-04-27 20:15:00,54.8,44.7,28.35,ESE,114,0.0,24.8,95,0.00,,,-99.99,HOBO +U30 +Weather +,2013-04-28 03:15:00,
2013-04-27 20:30:00,54.7,44.1,28.35,ESE,114,0.0,26.2,95,0.00,,,-99.99,HOBO +U30 +Weather +,2013-04-28 03:30:00,
2013-04-27 20:45:00,54.7,44.1,28.36,ESE,114,0.0,26.6,94,0.00,,,-99.99,HOBO +U30 +Weather +,2013-04-28 03:45:00,
2013-04-27 21:00:00,54.6,44.3,28.36,ESE,114,0.0,26.6,95,0.00,,,-99.99,HOBO +U30 +Weather +,2013-04-28 04:00:00,
2013-04-27 21:15:00,54.6,44.2,28.37,ESE,114,0.0,26.2,95,0.00,,,-99.99,HOBO +U30 +Weather +,2013-04-28 04:15:00,
2013-04-27 21:30:00,54.5,44.6,28.36,ESE,114,0.0,24.8,96,0.00,,,-99.99,HOBO +U30 +Weather +,2013-04-28 04:30:00,
2013-04-27 21:45:00,54.5,44.5,28.36,ESE,114,0.0,25.7,95,0.00,,,-99.99,HOBO +U30 +Weather +,2013-04-28 04:45:00,
2013-04-27 22:00:00,54.4,44.5,28.36,ESE,118,0.0,25.3,96,0.00,,,-99.99,HOBO +U30 +Weather +,2013-04-28 05:00:00,
2013-04-27 22:15:00,54.3,44.3,28.36,SE,124,0.0,26.6,96,0.00,,,-99.99,HOBO +U30 +Weather +,2013-04-28 05:15:00,
2013-04-27 22:30:00,54.2,44.3,28.36,SE,124,0.0,26.6,96,0.00,,,-99.99,HOBO +U30 +Weather +,2013-04-28 05:30:00,
2013-04-27 22:45:00,54.2,44.3,28.35,SE,124,0.0,26.6,96,0.00,,,-99.99,HOBO +U30 +Weather +,2013-04-28 05:45:00,
2013-04-27 23:00:00,54.1,44.2,28.35,SE,124,0.0,26.2,96,0.00,,,-99.99,HOBO +U30 +Weather +,2013-04-28 06:00:00,
2013-04-27 23:15:00,54.1,44.5,28.35,SE,124,0.0,27.1,96,0.00,,,-99.99,HOBO +U30 +Weather +,2013-04-28 06:15:00,
2013-04-27 23:30:00,54.0,44.4,28.35,SE,124,0.0,25.7,96,0.00,,,-99.99,HOBO +U30 +Weather +,2013-04-28 06:30:00,
2013-04-27 23:45:00,53.9,44.3,28.34,SE,124,0.0,25.7,96,0.00,,,-99.99,HOBO +U30 +Weather +,2013-04-28 06:45:00,